Terminal Aerodrome Forecast
Issued by NWS Jackson, KY

Home | Current Version | Previous Version | Text Only | Print | Product List | Glossary On
Versions: 1 2 3 4 5 6 7 8 9 10 11 12 13 14 15 16
000
FTUS43 KJKL 242220 AAF
TAFLOZ
TAF AMD
KLOZ 242220Z 2422/2518 20008G17KT P6SM VCTS SCT020CB OVC050
     FM250000 24007KT P6SM SCT020 BKN040
     FM250300 23005KT P6SM VCSH OVC020
     FM250800 23005KT P6SM VCSH OVC010=

USA.gov is the U.S. government's official web portal to all federal, state and local government web resources and services.